Theta_e
304 303 303 303 303 303 303 303 304 304 304 303 302 301 301 300 300 300 300 300 300 300 300 300 300 301 301 301 300 300 299 299 299 299 299 299 298 298 297 297 296 295
303 303 302 302 301 301 301 302 302 303 303 303 303 302 302 301 300 300 299 300 300 300 301 300 300 300 300 300 300 300 299 299 299 299 298 298 298 298 298 297 296 296
301 301 301 301 301 300 300 300 300 300 301 302 302 302 302 301 301 300 300 299 299 300 300 300 300 300 299 299 299 299 299 299 299 299 298 298 298 298 297 297 297 296
298 299 299 299 299 299 299 299 299 299 299 299 300 300 301 301 301 301 301 300 300 300 300 300 300 300 299 299 299 299 299 298 298 298 298 298 298 297 297 297 297 297
295 295 296 296 297 297 298 298 298 298 298 298 298 298 299 299 300 300 301 301 301 301 300 300 300 300 299 299 298 298 299 299 298 298 297 297 297 297 297 297 297 297
292 292 292 293 293 294 295 295 296 297 297 297 297 297 297 297 298 298 299 299 300 300 300 300 300 300 299 299 298 298 298 298 298 298 298 297 297 297 297 297 297 297
290 290 290 290 291 291 291 292 292 293 294 294 295 295 295 295 295 296 297 297 298 298 299 300 300 300 300 299 298 298 297 297 297 297 297 298 297 297 297 296 296 297
289 289 289 289 289 289 289 290 290 290 291 291 292 292 293 293 293 293 293 294 295 296 297 298 298 299 299 299 299 298 297 297 296 296 296 297 297 298 298 297 296 296
289 288 288 288 288 288 288 288 288 288 288 289 289 290 290 291 291 291 291 291 292 292 293 295 295 296 297 298 298 298 298 297 296 295 295 296 296 296 297 297 297 297
288 288 288 288 288 288 288 288 288 288 288 287 288 288 288 289 289 289 290 290 290 290 291 291 292 293 294 295 296 297 297 297 296 295 294 294 294 295 295 296 296 297
288 288 288 288 288 288 288 288 288 288 287 287 287 287 287 287 287 288 288 288 289 289 289 289 290 290 291 292 293 294 295 296 297 296 295 294 294 294 294 295 295 296
288 288 288 288 288 288 288 288 288 288 288 288 287 287 287 287 287 287 287 287 287 288 288 288 288 289 289 290 290 291 292 294 295 296 296 296 295 295 294 294 294 295
289 288 288 288 288 288 288 288 288 288 288 288 288 287 287 287 287 287 287 287 287 287 287 287 287 288 288 288 288 289 290 291 292 293 294 295 296 295 295 294 293 293
289 289 289 289 289 289 288 288 288 288 288 288 288 288 288 287 287 287 287 287 287 287 287 287 287 287 287 287 287 287 287 288 289 290 291 292 294 295 295 295 294 293
289 289 289 289 289 289 289 289 289 289 288 288 288 288 288 288 288 287 287 287 287 287 287 287 287 287 287 287 286 286 286 286 287 287 288 289 290 291 293 294 294 294
289 289 289 289 289 289 289 288 288 288 288 288 288 288 288 288 288 288 288 287 287 287 287 287 287 287 287 287 287 287 286 286 286 286 286 287 287 288 289 291 292 293
289 289 289 289 289 289 288 288 288 288 288 288 287 287 287 287 287 287 287 287 287 287 287 287 287 287 287 287 287 287 287 286 286 286 286 286 286 286 287 288 289 290
288 288 289 289 289 288 288 288 288 287 287 287 286 286 286 286 286 286 286 286 286 287 287 287 287 287 287 287 287 287 287 287 287 286 286 286 286 286 286 286 286 287
286 286 287 287 287 287 287 287 286 286 286 285 285 285 285 285 285 285 285 285 285 285 285 286 286 287 287 287 287 287 287 287 287 287 286 286 286 286 286 286 286 286
285 284 285 285 285 285 284 284 284 284 284 283 283 283 283 283 283 284 284 285 285 285 284 284 285 285 286 286 286 286 287 287 286 286 287 286 286 286 286 286 286 286
283 282 282 282 282 282 282 282 282 282 282 282 282 282 282 282 282 282 283 283 283 283 284 284 284 285 285 285 285 285 285 286 286 286 286 287 286 286 286 286 286 286
281 281 281 281 280 280 280 280 280 280 280 280 280 280 280 280 280 280 281 281 281 282 282 282 283 284 284 284 284 284 284 284 284 285 285 286 286 286 286 286 286 286
280 280 279 279 279 279 279 279 279 279 279 279 278 278 279 279 279 279 279 279 280 280 280 281 282 283 283 284 284 284 283 283 283 284 284 285 285 286 286 286 286 286
279 278 278 278 278 277 277 277 277 277 277 277 277 277 277 277 277 277 277 278 278 278 279 279 280 281 282 282 282 283 282 282 282 283 283 283 284 285 286 286 286 286
278 277 277 276 276 276 276 276 276 276 276 276 276 276 276 276 276 275 275 276 276 276 277 277 278 279 280 280 280 281 281 280 280 281 282 282 283 283 284 285 285 286
277 276 276 276 276 276 276 275 275 275 275 275 274 274 274 274 274 273 273 273 274 274 274 275 275 276 277 278 278 278 278 278 279 279 280 280 281 282 282 283 284 285
Wind_Speed
20 20 21 21 21 21 20 20 20 19 19 18 17 15 14 14 14 16 19 19 18 16 15 14 14 15 17 17 17 18 20 23 26 29 34 38 41 42 43 45 47 49
18 19 20 20 20 20 20 20 20 20 19 19 18 17 16 15 15 15 17 18 19 18 17 16 16 15 16 16 17 18 20 21 23 24 28 34 37 40 41 42 45 47
16 16 17 19 20 20 20 20 19 19 18 18 19 19 18 18 17 16 16 17 19 19 18 18 18 18 18 17 17 18 19 20 21 22 25 29 32 36 38 40 42 44
14 14 15 16 17 18 19 19 19 18 18 18 18 18 18 18 19 19 19 19 19 19 19 18 18 18 19 19 20 20 21 21 21 21 23 26 28 31 34 36 39 42
14 13 13 13 13 15 16 18 19 19 19 19 18 18 19 19 20 20 21 21 21 21 21 20 19 18 18 18 20 22 23 23 22 22 24 25 26 28 30 33 36 39
14 14 14 14 13 13 14 15 16 18 20 20 21 21 21 21 21 22 22 22 22 22 22 21 21 20 19 19 19 20 22 23 24 24 26 27 26 27 28 30 33 36
17 16 15 15 15 15 15 15 15 16 17 19 20 22 23 23 22 22 22 23 23 23 23 22 22 21 21 20 20 21 21 22 23 24 26 27 27 28 28 29 32 34
22 21 19 18 17 17 17 17 17 17 17 17 18 19 21 23 23 23 23 23 24 24 24 23 23 22 22 21 21 22 22 22 23 23 25 26 27 28 29 29 31 33
25 25 25 24 23 22 21 20 19 19 19 19 18 18 18 20 21 23 24 24 25 25 25 25 25 24 23 23 23 23 23 23 24 25 26 26 26 28 28 28 30 32
24 25 26 26 27 27 27 26 25 23 22 22 21 21 21 20 20 21 23 24 25 25 26 26 26 26 26 25 24 24 24 24 25 26 27 28 28 28 28 28 29 31
24 25 26 27 28 29 30 30 31 31 30 29 27 26 25 24 23 23 23 24 24 25 26 27 27 27 28 27 26 25 24 24 25 26 27 29 30 30 30 29 30 31
27 27 28 29 29 31 31 32 33 34 35 35 34 34 32 31 29 28 27 26 25 25 26 27 28 28 28 29 29 28 27 27 26 26 27 28 29 31 31 31 32 32
30 31 32 32 33 34 35 36 36 37 38 38 39 39 39 38 37 35 33 32 30 29 28 27 28 29 29 30 30 30 30 30 30 29 28 28 28 29 30 32 33 34
33 34 34 36 37 38 39 40 40 40 41 41 42 43 43 43 43 42 41 40 38 36 34 32 31 30 30 30 31 31 31 32 32 32 32 31 31 30 29 30 31 33
36 37 38 39 40 41 42 43 44 44 44 44 44 45 45 46 46 46 47 46 45 43 42 40 38 36 33 31 30 31 31 32 33 33 33 33 33 33 32 31 30 31
40 42 43 44 45 46 46 47 48 49 49 49 48 47 46 46 46 47 48 48 49 49 48 47 46 44 41 38 36 33 32 32 32 33 33 34 34 35 35 34 33 32
42 44 46 47 48 49 50 51 52 52 53 54 53 52 51 49 48 48 48 48 49 50 51 52 51 50 48 46 44 41 39 36 35 34 34 34 35 36 37 36 35 34
40 42 45 47 49 50 51 52 53 54 55 55 55 55 54 53 53 53 53 52 52 52 52 53 53 53 52 51 50 48 46 45 42 40 38 36 35 36 37 37 37 36
39 40 42 45 48 49 50 52 53 54 55 55 55 55 55 55 56 56 57 57 56 56 56 55 55 55 55 54 54 52 51 50 49 48 46 43 41 39 38 38 37 37
40 41 43 45 47 48 49 50 51 52 53 54 54 54 55 56 57 59 59 59 59 59 59 59 58 58 58 57 56 55 54 53 53 53 52 51 48 45 43 41 40 39
42 42 44 45 47 48 48 49 50 50 51 52 52 52 53 55 57 59 60 62 62 61 61 61 61 60 60 60 59 59 58 56 54 55 56 55 54 52 49 47 45 43
45 45 46 47 48 49 50 50 51 51 53 53 53 53 54 55 56 58 59 61 62 62 62 63 64 62 61 61 61 61 60 57 54 54 55 56 57 57 55 52 50 48
47 48 49 50 50 50 51 51 52 52 53 54 54 55 56 56 57 58 59 59 61 61 61 62 64 64 63 62 61 60 60 56 52 51 51 53 56 59 59 57 55 52
49 48 49 50 50 50 50 51 52 52 53 53 54 55 57 58 58 58 58 58 58 59 59 60 62 63 64 63 61 60 59 57 54 52 52 53 55 58 60 60 59 56
48 48 48 48 49 50 50 51 51 52 53 53 53 54 55 57 57 56 57 58 57 57 58 58 60 63 64 63 62 62 61 59 56 54 54 54 55 57 59 60 60 60
47 48 48 48 49 50 50 51 51 51 52 52 52 52 52 54 55 55 55 57 58 58 58 59 60 62 63 63 62 62 62 59 55 54 54 56 57 57 58 59 59 60
Wind_Direction
30 28 26 25 24 22 20 18 16 14 10 6 1 353 343 331 316 305 307 314 317 315 311 306 298 291 285 279 276 273 270 266 262 259 256 255 254 253 251 249 247 246
25 22 18 16 15 14 13 12 10 9 7 6 3 358 353 345 333 321 315 317 321 321 317 310 301 294 287 282 278 276 274 271 267 263 260 257 256 255 254 252 250 248
21 15 10 7 6 6 7 7 6 5 4 2 359 357 356 352 346 340 333 329 326 325 323 316 308 301 293 287 281 277 275 275 273 270 266 262 260 258 257 255 253 251
23 17 11 5 1 359 358 358 358 359 360 358 356 354 352 350 348 347 344 340 336 332 330 325 317 308 300 294 288 283 278 275 274 274 271 267 264 262 260 258 256 254
26 21 16 9 2 356 351 348 348 349 350 350 350 348 345 344 343 342 342 340 339 337 335 332 326 319 309 300 293 288 285 280 277 274 272 271 268 266 264 261 259 257
27 22 17 11 5 358 352 346 342 340 340 341 342 341 339 339 338 337 336 335 334 333 333 332 330 326 320 311 301 293 290 286 283 278 274 272 270 268 267 265 263 261
18 17 13 9 4 358 354 349 344 340 336 335 335 334 334 335 335 334 332 329 328 328 328 327 326 326 323 318 311 304 297 292 288 283 279 276 274 271 268 267 267 265
3 3 2 0 358 354 351 348 345 342 338 333 330 328 329 331 332 332 331 329 327 325 324 323 322 321 320 317 314 310 306 300 294 289 284 280 277 274 272 270 269 268
354 352 352 351 349 348 347 345 343 340 338 335 332 328 325 324 324 325 326 326 326 325 323 322 320 319 317 315 313 311 308 305 300 295 290 286 281 277 275 272 270 270
346 344 343 342 342 341 340 339 338 336 334 333 332 330 327 324 321 318 317 317 318 319 320 321 320 318 317 315 313 310 307 304 300 296 292 290 287 283 280 276 273 271
337 336 334 333 333 333 332 332 332 331 331 329 328 326 325 324 322 319 316 313 312 312 313 314 315 315 314 314 313 311 307 304 300 296 292 290 288 287 285 282 278 274
333 332 330 329 329 328 327 326 326 326 325 325 324 323 322 321 319 317 316 313 311 310 309 308 308 309 309 309 309 308 306 304 301 297 294 292 289 288 286 284 282 278
332 330 329 328 326 326 325 324 324 323 321 320 319 319 318 318 316 315 314 312 310 308 307 306 305 304 305 305 306 305 304 303 301 299 296 293 291 289 286 283 281 279
327 327 326 325 324 323 322 321 321 320 318 317 316 315 314 314 313 313 312 311 309 307 305 303 301 300 300 302 302 303 302 301 300 299 297 294 292 290 288 285 283 279
323 323 322 321 320 320 319 318 317 317 315 314 312 312 311 310 310 310 309 309 308 307 306 304 301 299 298 297 297 297 298 298 298 297 296 295 292 290 288 287 286 284
320 319 319 318 318 318 318 317 316 316 314 313 312 311 309 308 307 305 305 305 306 305 305 303 302 300 299 297 295 292 292 292 292 292 293 293 292 291 290 288 288 287
315 315 315 315 315 315 315 315 314 313 312 312 311 311 310 308 307 304 303 302 302 301 301 301 300 300 299 298 296 294 292 290 288 287 288 289 290 291 290 289 288 287
311 311 310 309 309 310 310 310 309 309 308 308 308 308 307 306 305 304 303 302 300 299 298 297 297 296 296 296 296 295 294 292 290 288 285 285 285 287 288 289 289 288
309 308 308 307 306 306 306 306 305 304 303 303 303 303 302 301 300 300 299 299 299 298 297 296 295 294 293 293 293 293 292 291 291 289 287 285 283 282 283 284 286 287
310 308 307 306 305 304 303 302 301 300 300 299 298 297 297 296 296 295 294 294 293 293 293 292 292 292 292 291 291 290 290 289 288 287 286 285 283 281 279 279 280 283
308 306 304 302 301 299 298 297 296 295 295 294 293 293 292 292 292 291 291 291 290 290 289 287 286 286 287 288 288 288 288 287 285 284 283 283 282 281 279 277 277 278
305 303 301 300 298 297 295 294 293 292 291 290 289 290 289 289 288 288 288 288 288 288 288 286 285 284 283 282 283 284 284 285 284 282 281 280 280 280 279 278 277 276
306 304 303 303 302 300 299 298 296 295 294 292 291 290 289 288 287 286 286 286 286 286 285 285 285 285 284 282 281 280 280 280 280 279 278 277 277 278 278 278 277 276
308 308 307 307 306 304 303 302 300 298 297 295 293 291 290 289 287 286 285 284 283 282 282 281 282 283 283 282 281 280 278 276 275 276 275 275 275 275 276 276 276 276
312 311 310 309 307 306 304 302 300 299 297 296 293 291 289 289 287 286 284 284 282 281 280 279 278 279 279 279 278 278 277 275 274 273 273 273 273 273 274 273 274 274
314 312 311 310 308 307 305 303 302 300 299 297 295 293 291 289 288 286 284 284 283 281 280 278 277 277 277 277 276 275 275 274 273 272 270 270 270 271 272 272 272 272